Weather History for Little Rock AFB, AR

Change the Weather History Date:

Saturday, March 23, 2013

  Actual Average Record
Temperature  
Mean Temperature 44 °F -  
Max Temperature 47 °F 66 °F 82 °F (2011)
Min Temperature 40 °F 41 °F 27 °F (1968)
Degree Days  
Heating Degree Days 21    
Moisture  
Dew Point 42 °F    
Average Humidity 92    
Maximum Humidity 100    
Minimum Humidity 81    
Precipitation  
Precipitation 0.02 in - - ()
Sea Level Pressure  
Sea Level Pressure 29.82 in    
Wind  
Wind Speed 7 mph (NNE)    
Max Wind Speed 13 mph    
Max Gust Speed -    
Visibility 7 miles    
Events Rain    
Averages and records for this station are not official NWS values.
T = Trace of Precipitation, MM = Missing Value Source: NWS Daily Summary

Daily Weather History Graph

Daily Weather History Graph

Search for Another Location

Airport:

Trip Planner

Search our weather history database for the weather conditions in past years. The results will help you decide how hot, cold, wet, or windy it might be!

Date:

Astronomy

Mar. 23, 2013 Rise Set
Actual Time 7:07 AM CDT 7:22 PM CDT
Civil Twilight 6:42 AM CDT 7:48 PM CDT
Nautical Twilight 6:12 AM CDT 8:17 PM CDT
Astronomical Twilight 5:42 AM CDT 8:47 PM CDT
Moon 3:57 PM CDT (3/23) 4:36 AM CDT (3/23)
Length of Visible Light 13h 05m
Length of Day
12h 15m
Waxing Gibbous, 85% of the Moon is Illuminated
Mar 23
Waxing Gibbous
Mar 27
Full
Apr 2
Last Quarter
Apr 10
New
Apr 18
First Quarter

Hourly Weather History & Observations

Time (CDT) Temp. Windchill Dew Point Humidity Pressure Visibility Wind Dir Wind Speed Gust Speed Precip Events Conditions
12:58 AM 40.3 °F 35.5 °F 39.7 °F 98% 29.91 in 5.0 mi NE 6.9 mph - N/A   Overcast
1:58 AM 40.5 °F 35.1 °F 39.9 °F 98% 29.90 in 4.0 mi NE 8.1 mph - N/A   Overcast
2:58 AM 40.6 °F 35.4 °F 40.5 °F 99% 29.88 in 4.0 mi NE 8.1 mph - N/A   Overcast
3:38 AM 41.0 °F 35.8 °F 41.0 °F 100% 29.87 in 2.5 mi NE 8.1 mph - N/A   Overcast
3:58 AM 40.5 °F 35.8 °F 40.3 °F 99% 29.89 in 1.8 mi NNE 6.9 mph - N/A   Overcast
4:58 AM 40.6 °F 35.4 °F 40.5 °F 99% 29.88 in 1.2 mi NE 8.1 mph - N/A   Overcast
5:18 AM 41.0 °F 35.8 °F 41.0 °F 100% 29.86 in 1.2 mi NE 8.1 mph - N/A   Overcast
5:23 AM 41.0 °F 35.8 °F 41.0 °F 100% 29.85 in 1.0 mi NNE 8.1 mph - N/A   Overcast
5:48 AM 41.0 °F 35.2 °F 41.0 °F 100% 29.86 in 1.2 mi NNE 9.2 mph - N/A   Overcast
5:53 AM 41.0 °F 38.0 °F 41.0 °F 100% 29.87 in 1.2 mi North 4.6 mph - N/A   Overcast
5:58 AM 41.0 °F 38.0 °F 40.8 °F 99% 29.88 in 1.5 mi NNE 4.6 mph - N/A   Overcast
6:28 AM 41.0 °F 35.2 °F 41.0 °F 100% 29.88 in 2.0 mi NNE 9.2 mph - N/A   Overcast
6:43 AM 41.0 °F 36.4 °F 41.0 °F 100% 29.89 in 3.0 mi NE 6.9 mph - N/A   Overcast
6:58 AM 41.2 °F 35.5 °F 40.8 °F 99% 29.91 in 3.0 mi NNE 9.2 mph - N/A   Overcast
7:23 AM 41.0 °F 35.8 °F 41.0 °F 100% 29.89 in 2.5 mi NNE 8.1 mph - N/A   Overcast
7:28 AM 41.0 °F 35.8 °F 41.0 °F 100% 29.89 in 3.0 mi NNE 8.1 mph - N/A   Overcast
7:58 AM 41.0 °F 35.2 °F 40.8 °F 99% 29.91 in 4.0 mi NE 9.2 mph - N/A   Overcast
8:28 AM 41.0 °F 35.2 °F 41.0 °F 100% 29.89 in 4.0 mi NE 9.2 mph - N/A   Overcast
8:58 AM 41.2 °F 36.6 °F 40.6 °F 98% 29.91 in 4.0 mi NE 6.9 mph - N/A   Overcast
9:58 AM 41.7 °F 36.7 °F 40.5 °F 95% 29.91 in 5.0 mi NNE 8.1 mph - N/A   Overcast
10:23 AM 42.8 °F 38.0 °F 41.0 °F 93% 29.90 in 6.0 mi NNE 8.1 mph - N/A   Overcast
10:58 AM 42.8 °F 40.1 °F 40.6 °F 92% 29.93 in 6.0 mi NE 4.6 mph - N/A   Overcast
11:58 AM 43.5 °F 41.9 °F 40.5 °F 89% 29.93 in 8.0 mi North 3.5 mph - N/A   Overcast
12:28 PM 44.6 °F 40.2 °F 41.0 °F 87% 29.89 in 9.0 mi NE 8.1 mph - N/A   Overcast
12:58 PM 44.6 °F 40.2 °F 41.4 °F 88% 29.88 in 10.0 mi NNE 8.1 mph - N/A   Overcast
1:58 PM 44.8 °F 42.4 °F 41.2 °F 87% 29.86 in 10.0 mi North 4.6 mph - N/A   Overcast
2:03 PM 44.6 °F 40.7 °F 41.0 °F 87% 29.81 in 10.0 mi NNE 6.9 mph - N/A Rain Light Rain
2:18 PM 44.6 °F 40.7 °F 41.0 °F 87% 29.80 in 10.0 mi ENE 6.9 mph - N/A   Overcast
2:33 PM 46.4 °F 42.4 °F 41.0 °F 81% 29.80 in 10.0 mi NNE 8.1 mph - N/A Rain Light Rain
2:50 PM 46.4 °F 42.9 °F 42.8 °F 87% 29.78 in 10.0 mi NE 6.9 mph - N/A   Mostly Cloudy
2:58 PM 46.4 °F 42.4 °F 42.8 °F 87% 29.79 in 10.0 mi NE 8.1 mph - 0.00 in   Mostly Cloudy
3:33 PM 46.4 °F 42.9 °F 42.8 °F 87% 29.79 in 10.0 mi NE 6.9 mph - N/A   Overcast
3:58 PM 47.1 °F - 41.7 °F 81% 29.81 in 10.0 mi NE 5.8 mph - N/A   Overcast
4:03 PM 46.4 °F 43.5 °F 42.8 °F 87% 29.80 in 10.0 mi NNE 5.8 mph - N/A   Overcast
4:18 PM 46.4 °F 42.4 °F 42.8 °F 87% 29.77 in 10.0 mi NNE 8.1 mph - N/A   Overcast
4:58 PM 47.7 °F - 42.3 °F 82% 29.74 in 10.0 mi NNE 12.7 mph - N/A   Overcast
5:08 PM 48.2 °F - 42.8 °F 82% 29.73 in 10.0 mi NNE 10.4 mph - N/A   Overcast
5:18 PM 48.2 °F - 42.8 °F 82% 29.74 in 10.0 mi NE 8.1 mph - N/A   Overcast
5:58 PM 47.7 °F - 42.8 °F 83% 29.73 in 10.0 mi NE 8.1 mph - N/A   Overcast
6:27 PM 48.2 °F - 42.8 °F 82% 29.75 in 10.0 mi NNE 5.8 mph - N/A Rain Light Rain
6:51 PM 48.2 °F - 44.6 °F 87% 29.75 in 10.0 mi NNE 6.9 mph - N/A   Overcast
6:58 PM 47.3 °F - 43.9 °F 88% 29.76 in 10.0 mi NNE 6.9 mph - 0.00 in   Overcast
7:46 PM 48.2 °F - 44.6 °F 87% 29.74 in 10.0 mi NE 5.8 mph - N/A   Light Drizzle
7:58 PM 47.3 °F - 44.2 °F 89% 29.75 in 10.0 mi ENE 4.6 mph - 0.00 in Rain Light Rain
8:03 PM 48.2 °F - 44.6 °F 87% 29.75 in 10.0 mi NE 5.8 mph - N/A Rain Light Rain
8:11 PM 48.2 °F - 44.6 °F 87% 29.73 in 10.0 mi ENE 9.2 mph - N/A   Overcast
8:16 PM 48.2 °F - 44.6 °F 87% 29.73 in 10.0 mi NE 6.9 mph - N/A   Overcast
8:27 PM 48.2 °F - 44.6 °F 87% 29.74 in 10.0 mi NNE 5.8 mph - N/A Rain Light Rain
8:58 PM 47.1 °F - 44.4 °F 90% 29.75 in 7.0 mi ENE 4.6 mph - 0.01 in Rain Light Rain
9:13 PM 46.4 °F 42.9 °F 44.6 °F 93% 29.72 in 8.0 mi East 6.9 mph - N/A Rain Light Rain
9:23 PM 46.4 °F 42.4 °F 44.6 °F 93% 29.71 in 7.0 mi ENE 8.1 mph - N/A Rain Light Rain
9:42 PM 46.4 °F 44.3 °F 44.6 °F 93% 29.71 in 8.0 mi Variable 4.6 mph - N/A   Mostly Cloudy
9:57 PM 46.4 °F 43.5 °F 44.6 °F 93% 29.73 in 8.0 mi NW 5.8 mph - N/A   Mostly Cloudy
9:58 PM 46.4 °F 43.5 °F 44.6 °F 93% 29.74 in 8.0 mi NW 5.8 mph - 0.01 in   Mostly Cloudy
10:08 PM 46.4 °F 43.5 °F 44.6 °F 93% 29.74 in 8.0 mi WNW 5.8 mph - N/A   Mostly Cloudy
10:58 PM 46.2 °F 45.0 °F 45.1 °F 96% 29.74 in 7.0 mi NNW 3.5 mph - N/A   Overcast
11:58 PM 46.0 °F 44.8 °F 45.1 °F 97% 29.73 in 8.0 mi WNW 3.5 mph - N/A   Overcast